Weather in Staroe Khanino

Russia / Tula Oblast     54°11′42″N   36°37′31″E
temp.,
°C
wind,
m/s
gust,
m/s
humid.,
%
clouds,
%
prec.,
mm/h
press.,
hPa
HPBL,
m
26 may, thu
thu2600:00+5ssw348626 0.0 101461
03:00+5ssw358786 0.0 101383
06:00+6sw26896 0.0 1011137
09:00+14sw246495 0.0 1009428
12:00+17ssw5662100 0.5 1007908
15:00+13ssw71185100 1.5 1006815
18:00+10se51196100 5.6 1002690
21:00+10n1299100 10.9 100055
27 may, fri
fri2700:00+10nw71397100 3.8 1001742
03:00+8w6139686 4.8 1002513
06:00+7wsw5129899 0.1 1002463
09:00+11w71190100 2.6 1002917
12:00+10w7118891 0.4 10041001
15:00+13w7117299 1.2 10041584
18:00+14w512705 0.5 10031735
21:00+10sw51278100 0.6 1003411
28 may, sat
sat2800:00+9sw51293100 0.2 1002437
03:00+9sw4996100 2.5 1001324
06:00+9sw71295100 0.4 1001932
09:00+9w81382100 0.6 10031106
12:00+12wsw8136380 0.1 10041884
15:00+13wsw8135926 0.8 10052054
18:00+13w6126726 0.3 10061528
21:00+8sw388464 0.4 1008152
29 may, sun
sun2900:00+7ssw3987100 0.0 1009169
03:00+7wsw3986100 0.1 1009277
06:00+8ssw499219 0.2 1010372
09:00+11wsw58732 0.3 1011954
12:00+14wsw68555 0.0 10121723
15:00+16wsw6852100 0.0 10132222
18:00+15wsw58685 0.0 10151265
21:00+10ssw358799 0.1 101773
30 may, mon
mon3000:00+8ssw359313 0.0 101883
03:00+7s349496 0.0 101961
06:00+9s37899 0.0 1020187
09:00+15ssw4771100 0.0 1020620
12:00+18s455770 0.0 10201625
15:00+19s565487 0.0 10191804
18:00+16ese2274100 0.0 101944
21:00+15ese3678100 0.0 1019120